GW1992 Weather Reports


time (UTC)temp
F
wind
direction
speed
knots
gust
knots
rain 1hr
in
rain 24hr
in
rain mn
in
humidity
%
barometer
mb
20260504190832 73 210 3.5 4.3 0.00 0.00 0.00 31 1013.6
20260504190328 73 99 1.7 2.6 0.00 0.00 0.00 32 1013.5
20260504185825 73 75 1.7 6.1 0.00 0.00 0.00 33 1013.6
20260504185321 72 117 1.7 5.2 0.00 0.00 0.00 33 1013.7
20260504184818 73 207 4.3 9.6 0.00 0.00 0.00 33 1013.8
20260504184314 72 120 1.7 2.6 0.00 0.00 0.00 33 1013.8
20260504183809 72 157 3.5 6.1 0.00 0.00 0.00 33 1013.9
20260504183307 72 148 2.6 5.2 0.00 0.00 0.00 32 1014.0
20260504182804 72 340 2.6 4.3 0.00 0.00 0.00 33 1014.1
20260504182304 73 149 3.5 6.1 0.00 0.00 0.00 34 1014.1
20260504181759 71 72 4.3 7.8 0.00 0.00 0.00 32 1014.1
20260504181256 71 71 0.9 6.1 0.00 0.00 0.00 32 1014.3
20260504180755 72 211 3.5 7.0 0.00 0.00 0.00 32 1014.4
20260504180253 71 148 2.6 5.2 0.00 0.00 0.00 32 1014.3
20260504175751 71 151 4.3 7.0 0.00 0.00 0.00 32 1014.5
20260504175247 71 201 2.6 7.8 0.00 0.00 0.00 32 1014.5
20260504174745 71 274 2.6 6.1 0.00 0.00 0.00 32 1014.6
20260504174243 70 45 5.2 7.0 0.00 0.00 0.00 33 1014.6
20260504173739 70 72 4.3 7.8 0.00 0.00 0.00 32 1014.6
20260504173236 70 231 2.6 6.1 0.00 0.00 0.00 32 1014.9
20260504172733 70 349 4.3 7.0 0.00 0.00 0.00 32 1014.9
20260504172230 70 256 4.3 7.0 0.00 0.00 0.00 32 1014.9
20260504171726 70 191 3.5 7.0 0.00 0.00 0.00 32 1015.0
20260504171223 69 191 2.6 4.3 0.00 0.00 0.00 33 1014.8
20260504170720 69 192 0.9 4.3 0.00 0.00 0.00 33 1015.2
20260504170217 69 136 4.3 7.0 0.00 0.00 0.00 32 1015.3
20260504160136 68 199 4.3 7.0 0.00 0.00 0.00 33 1015.9
20260504151103 66 121 0.9 2.6 0.00 0.00 0.00 39 1016.5
20260504150600 66 339 2.6 2.6 0.00 0.00 0.00 40 1016.5
20260504141026 62 194 2.6 5.2 0.00 0.00 0.00 47 1016.6
20260504140523 62 321 2.6 4.3 0.00 0.00 0.00 47 1016.5
20260504130447 58 189 3.5 6.1 0.00 0.00 0.00 55 1017.0
20260504110334 49 67 0.0 0.9 0.00 0.00 0.00 60 1017.2
20260504100251 47 325 2.6 2.6 0.00 0.00 0.00 55 1017.2
20260504081645 46 69 0.0 0.0 0.00 0.00 0.00 53 1017.3
20260504081141 47 77 0.0 0.9 0.00 0.00 0.00 52 1017.3
20260504080638 46 56 0.9 0.9 0.00 0.00 0.00 53 1017.2
20260504080134 46 47 0.9 0.9 0.00 0.00 0.00 53 1017.3
20260504050450 51 110 0.9 1.7 0.00 0.00 0.00 45 1017.6
20260504045948 50 321 1.7 1.7 0.00 0.00 0.00 45 1017.4
20260504045443 50 76 0.0 0.9 0.00 0.00 0.00 46 1017.4
20260504044939 50 87 1.7 1.7 0.00 0.00 0.00 46 1017.3
20260504044437 50 87 0.0 0.9 0.00 0.00 0.00 46 1017.3
20260504043935 50 78 0.9 0.9 0.00 0.00 0.00 46 1017.4
20260504043431 50 65 0.9 1.7 0.00 0.00 0.00 46 1017.4
20260504042929 50 79 0.0 0.9 0.00 0.00 0.00 46 1017.2
20260504042425 50 31 0.0 1.7 0.00 0.00 0.00 46 1017.1
20260504041922 50 69 0.9 0.9 0.00 0.00 0.00 47 1017.1
20260504041418 49 68 0.0 0.9 0.00 0.00 0.00 47 1017.1
20260504040914 50 77 0.0 0.0 0.00 0.00 0.00 47 1017.1
20260504040412 50 72 0.0 0.9 0.00 0.00 0.00 47 1017.1
20260504035908 50 56 0.9 0.9 0.00 0.00 0.00 46 1017.0
20260504035406 50 62 0.9 1.7 0.00 0.00 0.00 46 1017.1
20260504034902 50 73 0.0 0.9 0.00 0.00 0.00 45 1016.9
20260504034359 50 78 0.0 0.9 0.00 0.00 0.00 45 1017.0
20260504033856 50 69 0.0 0.9 0.00 0.00 0.00 45 1016.9
20260504033354 50 14 0.0 0.9 0.00 0.00 0.00 45 1016.8
20260504032851 50 89 0.9 1.7 0.00 0.00 0.00 45 1016.9
20260504032348 49 54 0.9 0.9 0.00 0.00 0.00 47 1016.8
20260504031844 49 77 0.0 0.0 0.00 0.00 0.00 47 1016.9
20260504031342 50 79 0.0 0.0 0.00 0.00 0.00 46 1016.8
20260504030838 50 75 0.0 0.9 0.00 0.00 0.00 45 1016.7
20260504030335 51 73 0.0 0.0 0.00 0.00 0.00 45 1016.9
20260504025831 50 69 0.0 0.9 0.00 0.00 0.00 45 1016.7
20260504025328 51 78 0.0 0.0 0.00 0.00 0.00 45 1016.8
20260504024825 51 91 0.0 0.9 0.00 0.00 0.00 43 1016.8
20260504024322 51 71 0.9 0.9 0.00 0.00 0.00 43 1016.9
20260504023818 52 8 0.9 2.6 0.00 0.00 0.00 43 1017.1
20260504023315 52 49 0.9 1.7 0.00 0.00 0.00 43 1017.1
20260504022811 51 88 0.9 1.7 0.00 0.00 0.00 43 1017.0
20260504022308 51 71 0.0 1.7 0.00 0.00 0.00 44 1016.9
20260504021804 51 80 0.0 0.9 0.00 0.00 0.00 45 1017.0
20260504021302 50 74 0.0 0.9 0.00 0.00 0.00 46 1016.9
20260504020758 49 68 0.0 0.9 0.00 0.00 0.00 48 1017.0
20260504020255 48 74 0.0 0.0 0.00 0.00 0.00 49 1016.8
20260504015751 48 74 0.0 0.0 0.00 0.00 0.00 49 1016.9
20260504015248 48 73 0.0 0.0 0.00 0.00 0.00 48 1016.7
20260504014744 49 74 0.0 0.0 0.00 0.00 0.00 47 1016.8
20260504014240 49 75 0.0 0.0 0.00 0.00 0.00 46 1016.8
20260504013738 49 68 0.0 0.0 0.00 0.00 0.00 46 1016.6
20260504013235 49 74 0.0 0.0 0.00 0.00 0.00 46 1016.8
20260504012732 50 76 0.0 0.0 0.00 0.00 0.00 44 1016.8
20260504012230 51 76 0.0 0.0 0.00 0.00 0.00 43 1016.7
20260504011726 52 78 0.0 0.0 0.00 0.00 0.00 41 1016.6
20260504011223 53 85 0.0 0.9 0.00 0.00 0.00 40 1016.6
20260504010719 54 85 0.0 0.9 0.00 0.00 0.00 39 1016.5
20260504010215 53 76 0.9 1.7 0.00 0.00 0.00 39 1016.4
20260504005712 53 107 0.9 1.7 0.00 0.00 0.00 40 1016.4
20260504005209 53 76 0.0 0.9 0.00 0.00 0.00 40 1016.4
20260504004707 53 77 0.0 0.9 0.00 0.00 0.00 40 1016.3
20260504004204 53 54 0.0 0.0 0.00 0.00 0.00 40 1016.1
20260504003700 53 72 0.0 0.0 0.00 0.00 0.00 40 1016.2
20260504003157 54 71 0.0 0.0 0.00 0.00 0.00 39 1016.1
20260504002653 54 74 0.0 0.9 0.00 0.00 0.00 38 1016.0
20260504002151 55 75 0.0 0.0 0.00 0.00 0.00 37 1015.9
20260504001649 56 71 0.0 0.0 0.00 0.00 0.00 36 1015.9
20260504001144 56 77 0.0 0.9 0.00 0.00 0.00 35 1015.9
20260504000642 57 65 0.0 1.7 0.00 0.00 0.00 35 1015.7
20260504000139 57 59 0.9 0.9 0.00 0.00 0.00 34 1015.8
20260503235637 57 56 0.9 1.7 0.00 0.00 0.00 34 1015.8
20260503235134 58 81 0.9 1.7 0.00 0.00 0.00 33 1015.8
20260503234632 58 148 1.7 4.3 0.00 0.00 0.00 32 1015.6
20260503234130 58 99 0.9 4.3 0.00 0.00 0.00 32 1015.7
20260503233626 58 68 1.7 4.3 0.00 0.00 0.00 33 1015.6
20260503233122 59 36 0.9 5.2 0.00 0.00 0.00 32 1015.6
20260503232619 59 224 5.2 6.1 0.00 0.00 0.00 31 1015.4
20260503232116 59 271 3.5 4.3 0.00 0.00 0.00 31 1015.5
20260503231615 60 307 2.6 4.3 0.00 0.00 0.00 31 1015.4
20260503231111 60 61 0.9 1.7 0.00 0.00 0.00 30 1015.5
20260503230608 60 340 6.1 7.0 0.00 0.00 0.00 29 1015.3
20260503230105 60 323 1.7 5.2 0.00 0.00 0.00 30 1015.4
20260503225602 61 69 2.6 7.0 0.00 0.00 0.00 30 1015.4
20260503225056 61 61 1.7 4.3 0.00 0.00 0.00 29 1015.3
20260503224549 61 272 1.7 2.6 0.00 0.00 0.00 29 1015.3
20260503224047 61 336 5.2 6.1 0.00 0.00 0.00 28 1015.5
20260503223544 61 71 1.7 5.2 0.00 0.00 0.00 29 1015.3
20260503223039 61 302 5.2 6.1 0.00 0.00 0.00 29 1015.5
20260503222538 62 359 3.5 6.1 0.00 0.00 0.00 28 1015.4
20260503222036 61 306 4.3 6.1 0.00 0.00 0.00 28 1015.5
20260503221534 62 260 3.5 9.6 0.00 0.00 0.00 28 1015.5
20260503221031 61 319 2.6 7.8 0.00 0.00 0.00 28 1015.3
20260503220527 61 337 4.3 8.7 0.00 0.00 0.00 28 1015.4
20260503220024 62 9 4.3 7.0 0.00 0.00 0.00 27 1015.4
20260503215521 62 153 3.5 7.8 0.00 0.00 0.00 26 1015.2
20260503215018 62 359 4.3 7.0 0.00 0.00 0.00 27 1015.3
20260503214516 62 13 4.3 9.6 0.00 0.00 0.00 27 1015.3
20260503214012 62 210 2.6 8.7 0.00 0.00 0.00 27 1015.3
20260503213511 62 62 0.9 7.0 0.00 0.00 0.00 27 1015.2
20260503213007 62 119 4.3 9.6 0.00 0.00 0.00 26 1015.4
20260503212505 62 62 2.6 6.1 0.00 0.00 0.00 26 1015.1
20260503212002 61 339 3.5 6.1 0.00 0.00 0.00 26 1015.2
20260503211459 61 74 2.6 6.1 0.00 0.00 0.00 27 1015.1
20260503210954 62 96 3.5 9.6 0.00 0.00 0.00 27 1015.2
20260503210451 62 303 2.6 7.8 0.00 0.00 0.00 26 1015.1
20260503205946 61 18 5.2 7.0 0.00 0.00 0.00 27 1015.2
20260503205443 61 65 2.6 7.8 0.00 0.00 0.00 28 1015.1
20260503204939 62 351 4.3 9.6 0.00 0.00 0.00 27 1015.3
20260503204437 62 53 7.8 15.6 0.00 0.00 0.00 26 1015.1
20260503203933 62 305 5.2 8.7 0.00 0.00 0.00 27 1015.4
20260503203431 62 47 2.6 5.2 0.00 0.00 0.00 27 1015.3
20260503202927 61 46 4.3 7.8 0.00 0.00 0.00 28 1015.4
20260503202426 61 9 4.3 7.8 0.00 0.00 0.00 27 1015.4
20260503201924 59 358 5.2 13.0 0.00 0.00 0.00 29 1015.5
20260503201421 60 5 1.7 9.6 0.00 0.00 0.00 28 1015.6
20260503200918 61 10 2.6 7.8 0.00 0.00 0.00 31 1015.5
20260503200414 60 107 2.6 13.9 0.00 0.00 0.00 28 1015.6
20260503195911 60 72 1.7 7.8 0.00 0.00 0.00 30 1015.7
20260503195409 60 320 4.3 13.9 0.00 0.00 0.00 29 1015.7
20260503194905 59 60 3.5 8.7 0.00 0.00 0.00 30 1015.8
20260503194402 59 193 6.1 8.7 0.00 0.00 0.00 30 1015.8
20260503193858 60 334 7.0 12.2 0.00 0.00 0.00 28 1015.9
20260503193353 59 29 5.2 8.7 0.00 0.00 0.00 30 1015.9
20260503192849 60 255 6.1 13.0 0.00 0.00 0.00 29 1016.1
20260503192345 60 316 3.5 11.3 0.00 0.00 0.00 30 1015.9
20260503191842 60 335 7.0 9.6 0.00 0.00 0.00 29 1016.0
20260503191339 58 352 3.5 8.7 0.00 0.00 0.00 30 1015.9